K5NOC-12 Weather Reports


Display with metric or nautical units.
time (UTC)temp
F
wind
direction
speed
MPH
gust
MPH
rain 1hr
in
rain 24hr
in
rain mn
in
humidity
%
barometer
mb
20260505114215 55 346 9.0 9.0 0.00 0.00 0.00 53 1007.6
20260505112715 55 337 8.0 9.0 0.00 0.00 0.00 53 1007.8
20260505111215 56 321 7.0 8.0 0.00 0.00 0.00 54 1007.6
20260505101214 60 320 13.0 18.0 0.00 0.00 0.00 49 1007.2
20260505095714 62 323 12.0 13.0 0.00 0.00 0.00 44 1006.7
20260505094214 67 333 20.0 20.0 0.00 0.00 0.00 26 1006.1
20260505092714 69 313 8.0 12.0 0.00 0.00 0.00 24 1005.6
20260505091214 68 253 7.0 7.0 0.00 0.00 0.00 26 1005.5
20260505085714 68 254 6.0 8.0 0.00 0.00 0.00 27 1005.0
20260505084214 69 252 5.0 9.0 0.00 0.00 0.00 26 1004.8
20260505082713 69 239 6.0 8.0 0.00 0.00 0.00 26 1004.6
20260505081213 68 216 5.0 5.0 0.00 0.00 0.00 26 1004.7
20260505075713 69 242 3.0 6.0 0.00 0.00 0.00 26 1004.9
20260505074213 69 242 7.0 10.0 0.00 0.00 0.00 26 1005.1
20260505072713 70 244 5.0 9.0 0.00 0.00 0.00 25 1005.0
20260505071213 71 220 6.0 7.0 0.00 0.00 0.00 25 1005.0
20260505065713 71 238 7.0 8.0 0.00 0.00 0.00 24 1005.0
20260505064212 71 223 7.0 10.0 0.00 0.00 0.00 24 1004.8
20260505062712 71 257 7.0 10.0 0.00 0.00 0.00 24 1005.1
20260505061212 71 250 6.0 7.0 0.00 0.00 0.00 24 1005.1
20260505055712 72 245 6.0 15.0 0.00 0.00 0.00 24 1005.0
20260505054212 72 242 5.0 7.0 0.00 0.00 0.00 23 1005.0
20260505052712 72 209 17.0 20.0 0.00 0.00 0.00 24 1005.1
20260505051211 72 251 6.0 10.0 0.00 0.00 0.00 23 1005.2
20260505041211 74 195 7.0 10.0 0.00 0.00 0.00 23 1005.2
20260505035711 74 221 5.0 6.0 0.00 0.00 0.00 22 1005.3
20260505034211 74 192 6.0 12.0 0.00 0.00 0.00 22 1005.2
20260505032711 75 208 7.0 8.0 0.00 0.00 0.00 20 1005.1
20260505031211 75 219 7.0 10.0 0.00 0.00 0.00 18 1005.0
20260505025710 76 203 6.0 7.0 0.00 0.00 0.00 16 1005.0
20260505024210 77 244 6.0 6.0 0.00 0.00 0.00 16 1004.8
20260505022710 77 208 6.0 7.0 0.00 0.00 0.00 15 1004.7
20260505021210 78 224 7.0 9.0 0.00 0.00 0.00 15 1004.6
20260505015710 78 196 9.0 12.0 0.00 0.00 0.00 15 1004.6
20260505014210 79 205 8.0 6.0 0.00 0.00 0.00 14 1004.6
20260505012710 80 207 7.0 9.0 0.00 0.00 0.00 14 1004.4
20260505011209 81 216 3.0 8.0 0.00 0.00 0.00 14 1004.3
20260505005709 81 229 8.0 9.0 0.00 0.00 0.00 13 1004.4
20260505004209 82 244 8.0 10.0 0.00 0.00 0.00 13 1004.5
20260505002709 83 256 9.0 12.0 0.00 0.00 0.00 13 1004.6
20260505001209 83 225 10.0 14.0 0.00 0.00 0.00 13 1004.6
20260504235709 83 251 12.0 14.0 0.00 0.00 0.00 14 1004.6
20260504234209 83 233 5.0 6.0 0.00 0.00 0.00 19 1004.6
20260504232709 84 223 6.0 8.0 0.00 0.00 0.00 20 1004.7
20260504231209 84 203 5.0 6.0 0.00 0.00 0.00 20 1004.7
20260504225708 84 255 8.0 9.0 0.00 0.00 0.00 20 1004.9
20260504224208 85 222 6.0 7.0 0.00 0.00 0.00 18 1004.9
20260504222708 86 251 8.0 12.0 0.00 0.00 0.00 17 1005.2
20260504221208 86 253 7.0 8.0 0.00 0.00 0.00 16 1005.2
20260504215708 87 256 7.0 10.0 0.00 0.00 0.00 17 1005.3
20260504214208 85 243 14.0 20.0 0.00 0.00 0.00 17 1005.6
20260504212708 85 241 6.0 6.0 0.00 0.00 0.00 18 1005.7
20260504211207 86 211 10.0 12.0 0.00 0.00 0.00 18 1006.3
20260504205707 85 259 9.0 12.0 0.00 0.00 0.00 18 1006.3
20260504204207 85 227 12.0 17.0 0.00 0.00 0.00 18 1006.6
20260504202707 85 202 6.0 7.0 0.00 0.00 0.00 21 1006.6
20260504201207 84 242 7.0 14.0 0.00 0.00 0.00 22 1006.9
20260504195707 84 246 7.0 13.0 0.00 0.00 0.00 21 1007.2
20260504194207 84 223 8.0 13.0 0.00 0.00 0.00 21 1007.4
20260504192706 84 266 10.0 12.0 0.00 0.00 0.00 21 1007.6
20260504191206 84 239 6.0 7.0 0.00 0.00 0.00 22 1007.6
20260504185706 84 277 13.0 16.0 0.00 0.00 0.00 20 1007.9
20260504184206 84 251 10.0 13.0 0.00 0.00 0.00 21 1008.1
20260504182706 84 257 8.0 12.0 0.00 0.00 0.00 21 1008.6
20260504181206 83 267 8.0 10.0 0.00 0.00 0.00 22 1008.8
20260504175706 83 247 15.0 18.0 0.00 0.00 0.00 22 1009.0
20260504174206 83 243 12.0 14.0 0.00 0.00 0.00 22 1009.3
20260504172705 82 253 9.0 12.0 0.00 0.00 0.00 22 1009.5
20260504171205 83 266 7.0 7.0 0.00 0.00 0.00 22 1009.6
20260504141203 65 248 3.0 7.0 0.00 0.00 0.00 51 1010.4